NOAA 16 DEB

Satellite information

Favourite Embed

Satellite Type and Status

DEBRISIN ORBIT

Key statistics

Satellite NOAA 16 DEB at a glance.

Uptime

9110

Days in orbit

Revolutions

≈ 14.3

Per day

Orbit

SSO

Sun Synchronous Orbit

Inclination

98.7

Latest

Satellite identification and parameters

Extended collection of information and parameters for NOAA 16 DEB.

Object identification

Identified? True

Debris? True

Object name: NOAA 16 DEB

International designator: 2000-055PV

Object number (NORAD): 41715

Object ID (CCSDS): 41715

Country: UNITED STATES OF AMERICA (US)

Current information (Y/N): Y

RCS size: SMALL

Orbital parameters

Period: 100.724 minutes

Inclination: 98.6515 deg

SMA: 7171.039 km

Apoapsis: 802.392 km

Periapsis: 783.416 km

RAAN: 284.8824 deg

Eccentricy: 0.00132309

Argument of periapsis: 110.1192 deg

Mean anomaly: 250.1415 deg

Mean motion: 14.29649726 rev/day

Mean motion (dot): 0.00006694 rev/day2

B* drag term: 0.0026253499 1/REarth

Two-line elements (TLE)

Creation date: Aug. 31, 2025, 2:26 a.m.

Reference frame: TEME

Reference center: EARTH

Epoch: Aug. 30, 2025, 8:10 a.m. UTC

TLE line 0: 0 NOAA 16 DEB

TLE line 1: 1 41715U 00055PV 25242.34092666 .00006694 00000-0 26253-2 0 9994

TLE line 2: 2 41715 98.6515 284.8824 0013231 110.1192 250.1415 14.29649726484942

Live tracking on map

Real-time ground track for satellite NOAA 16 DEB.

In-orbit conjunctions

A list of the most updated potential collisions computed for object NOAA 16 DEB.

Target Orbit TCA Probability of collision Miss distance Type
SL-16 R/B SSO 2025-08-11 10:15:45 0.000117383 516.0 (m) ROCKET BODY
FALCONSAT SSO 2025-06-14 13:15:49 0.0001296902 936.0 (m) PAYLOAD
METEOR 2-5 DEB LEO 2024-08-28 03:13:52 0.000123117 142.0 (m) DEBRIS

Associated space launch

The NOAA K, L and M POES satellites begin the fifth generation of improved environmental monitoring in support of NOAA missions. The instrument payload has significant improvements and additions/deletions. The instrument changes have effected the spacecraft subsystems and data formats.

NOAA 16 DEB was lifted into orbit during the mission ‘Titan II SLV | NOAA 16’, on board a Titan II SLV space rocket.

The launch took place on Sept. 21, 2000, 10:22 a.m. from Space Launch Complex 4W.

For more information about the launch, click the button.

Launch to space Titan II SLV | NOAA 16
Titan II SLV | NOAA 16

Agency: N/A

Status: Launch Successful

Launch date: Sept. 21, 2000, 10:22 a.m. UTC

Rocket: Titan II SLV

Launch pad: Space Launch Complex 4W

Location: Vandenberg SFB, CA, USA

...

Latest news about this satellite

There are no fresh news available about this satellite. Check back as we update our databases every day.


Newsletter sign-up

Weekly statistics, charts and insights to help you stay on top of the space industry.